Time,TemperatureF,DewpointF,PressureIn,WindDirection,WindDirectionDegrees,WindSpeedMPH,WindSpeedGustMPH,Humidity,HourlyPrecipIn,Conditions,Clouds,dailyrainin,SoftwareType,DateUTC
2013-08-09 00:12:00,58.0,-99.9,29.98,SW,231,9.0,11.0,-999,-99.99,,,-99.99,,2013-08-09 07:12:00,
2013-08-09 00:53:00,57.0,-99.9,29.97,SSW,206,9.0,13.0,-999,-99.99,,,-99.99,,2013-08-09 07:53:00,
2013-08-09 01:12:00,57.0,-99.9,29.98,SSW,200,11.0,15.0,-999,-99.99,,,-99.99,,2013-08-09 08:12:00,
2013-08-09 01:32:00,56.0,-99.9,29.97,South,191,13.0,18.0,-999,-99.99,,,-99.99,,2013-08-09 08:32:00,
2013-08-09 01:53:00,57.0,-99.9,29.97,SSW,193,8.0,11.0,-999,-99.99,,,-99.99,,2013-08-09 08:53:00,
2013-08-09 02:22:00,57.0,-99.9,29.97,SW,225,4.0,9.0,-999,-99.99,,,-99.99,,2013-08-09 09:22:00,
2013-08-09 03:01:00,58.0,-99.9,29.96,SSW,197,6.0,7.0,-999,-99.99,,,-99.99,,2013-08-09 10:01:00,
2013-08-09 03:43:00,58.0,-99.9,29.95,SW,228,7.0,11.0,-999,-99.99,,,-99.99,,2013-08-09 10:43:00,
2013-08-09 03:53:00,58.0,-99.9,29.95,SW,230,8.0,12.0,-999,-99.99,,,-99.99,,2013-08-09 10:53:00,
2013-08-09 04:02:00,58.0,-99.9,29.95,WSW,238,10.0,12.0,-999,-99.99,,,-99.99,,2013-08-09 11:02:00,
2013-08-09 04:30:00,58.0,-99.9,29.94,SW,233,10.0,14.0,-999,-99.99,,,-99.99,,2013-08-09 11:30:00,
2013-08-09 04:33:00,58.0,-99.9,29.95,SW,225,7.0,10.0,-999,-99.99,,,-99.99,,2013-08-09 11:33:00,
2013-08-09 04:53:00,58.0,-99.9,29.94,SW,231,11.0,14.0,-999,-99.99,,,-99.99,,2013-08-09 11:53:00,
2013-08-09 05:02:00,58.0,-99.9,29.94,SW,233,10.0,14.0,-999,-99.99,,,-99.99,,2013-08-09 12:02:00,
2013-08-09 05:12:00,58.0,-99.9,29.94,SW,233,10.0,14.0,-999,-99.99,,,-99.99,,2013-08-09 12:12:00,
2013-08-09 05:22:00,58.0,-99.9,29.94,SW,233,10.0,14.0,-999,-99.99,,,-99.99,,2013-08-09 12:22:00,
2013-08-09 06:23:00,57.0,-99.9,29.94,SW,232,7.0,9.0,-999,-99.99,,,-99.99,,2013-08-09 13:23:00,
2013-08-09 06:32:00,57.0,-99.9,29.94,SW,232,7.0,9.0,-999,-99.99,,,-99.99,,2013-08-09 13:32:00,
2013-08-09 07:02:00,57.0,-99.9,29.95,SSW,206,7.0,11.0,-999,-99.99,,,-99.99,,2013-08-09 14:02:00,
2013-08-09 07:33:00,57.0,-99.9,29.95,SW,229,9.0,11.0,-999,-99.99,,,-99.99,,2013-08-09 14:33:00,
2013-08-09 07:43:00,57.0,-99.9,29.96,SSW,211,6.0,11.0,-999,-99.99,,,-99.99,,2013-08-09 14:43:00,
2013-08-09 07:53:00,57.0,-99.9,29.96,SW,216,7.0,9.0,-999,-99.99,,,-99.99,,2013-08-09 14:53:00,
2013-08-09 08:33:00,57.0,-99.9,29.96,SW,226,8.0,13.0,-999,-99.99,,,-99.99,,2013-08-09 15:33:00,
2013-08-09 08:44:00,57.0,-99.9,29.96,SW,217,11.0,13.0,-999,-99.99,,,-99.99,,2013-08-09 15:44:00,
2013-08-09 08:53:00,57.0,-99.9,29.96,SSW,209,9.0,14.0,-999,-99.99,,,-99.99,,2013-08-09 15:53:00,
2013-08-09 09:02:00,58.0,-99.9,29.96,SSW,213,8.0,15.0,-999,-99.99,,,-99.99,,2013-08-09 16:02:00,
2013-08-09 09:32:00,57.0,-99.9,29.97,SSW,204,8.0,14.0,-999,-99.99,,,-99.99,,2013-08-09 16:32:00,
2013-08-09 09:53:00,58.0,-99.9,29.97,SSW,201,10.0,13.0,-999,-99.99,,,-99.99,,2013-08-09 16:53:00,
2013-08-09 10:52:00,58.0,-99.9,29.97,SSW,194,12.0,16.0,-999,-99.99,,,-99.99,,2013-08-09 17:52:00,
2013-08-09 11:02:00,58.0,-99.9,29.97,SSW,211,11.0,15.0,-999,-99.99,,,-99.99,,2013-08-09 18:02:00,
2013-08-09 11:11:00,59.0,-99.9,29.97,SSW,204,10.0,14.0,-999,-99.99,,,-99.99,,2013-08-09 18:11:00,
2013-08-09 11:22:00,58.0,-99.9,29.97,SSW,193,14.0,17.0,-999,-99.99,,,-99.99,,2013-08-09 18:22:00,
2013-08-09 11:32:00,58.0,-99.9,29.97,SSW,193,14.0,17.0,-999,-99.99,,,-99.99,,2013-08-09 18:32:00,
2013-08-09 12:02:00,59.0,-99.9,29.98,SSW,201,13.0,18.0,-999,-99.99,,,-99.99,,2013-08-09 19:02:00,
2013-08-09 12:52:00,60.0,-99.9,29.97,SSW,202,12.0,18.0,-999,-99.99,,,-99.99,,2013-08-09 19:52:00,
2013-08-09 13:02:00,60.0,-99.9,29.97,SSW,202,12.0,18.0,-999,-99.99,,,-99.99,,2013-08-09 20:02:00,
2013-08-09 13:52:00,62.0,-99.9,29.97,SW,218,9.0,15.0,-999,-99.99,,,-99.99,,2013-08-09 20:52:00,
2013-08-09 14:02:00,62.0,-99.9,29.97,SW,218,9.0,15.0,-999,-99.99,,,-99.99,,2013-08-09 21:02:00,
2013-08-09 14:12:00,61.0,-99.9,29.97,SW,219,12.0,16.0,-999,-99.99,,,-99.99,,2013-08-09 21:12:00,
2013-08-09 15:02:00,64.0,-99.9,29.96,SSW,213,8.0,14.0,-999,-99.99,,,-99.99,,2013-08-09 22:02:00,
2013-08-09 15:11:00,64.0,-99.9,29.96,SSW,213,8.0,14.0,-999,-99.99,,,-99.99,,2013-08-09 22:11:00,
2013-08-09 15:32:00,63.0,-99.9,29.96,SW,223,15.0,17.0,-999,-99.99,,,-99.99,,2013-08-09 22:32:00,
2013-08-09 15:43:00,63.0,-99.9,29.96,SW,222,12.0,16.0,-999,-99.99,,,-99.99,,2013-08-09 22:43:00,
2013-08-09 15:52:00,63.0,-99.9,29.96,SW,222,13.0,17.0,-999,-99.99,,,-99.99,,2013-08-09 22:52:00,
2013-08-09 16:02:00,63.0,-99.9,29.96,SW,223,12.0,17.0,-999,-99.99,,,-99.99,,2013-08-09 23:02:00,
2013-08-09 16:11:00,63.0,-99.9,29.96,SW,223,12.0,17.0,-999,-99.99,,,-99.99,,2013-08-09 23:11:00,
2013-08-09 16:32:00,63.0,-99.9,29.96,SW,222,12.0,16.0,-999,-99.99,,,-99.99,,2013-08-09 23:32:00,
2013-08-09 16:52:00,64.0,-99.9,29.95,WSW,237,10.0,14.0,-999,-99.99,,,-99.99,,2013-08-09 23:52:00,
2013-08-09 17:02:00,63.0,-99.9,29.95,SW,234,11.0,14.0,-999,-99.99,,,-99.99,,2013-08-10 00:02:00,
2013-08-09 17:22:00,63.0,-99.9,29.96,SW,232,11.0,14.0,-999,-99.99,,,-99.99,,2013-08-10 00:22:00,
2013-08-09 17:43:00,63.0,-99.9,29.96,WSW,237,12.0,16.0,-999,-99.99,,,-99.99,,2013-08-10 00:43:00,
2013-08-09 18:00:00,63.0,-99.9,29.95,SW,233,11.0,15.0,-999,-99.99,,,-99.99,,2013-08-10 01:00:00,
2013-08-09 18:11:00,63.0,-99.9,29.95,SW,229,11.0,14.0,-999,-99.99,,,-99.99,,2013-08-10 01:11:00,
2013-08-09 18:32:00,63.0,-99.9,29.95,SW,233,11.0,15.0,-999,-99.99,,,-99.99,,2013-08-10 01:32:00,
2013-08-09 18:43:00,63.0,-99.9,29.95,SW,233,11.0,15.0,-999,-99.99,,,-99.99,,2013-08-10 01:43:00,
2013-08-09 18:53:00,63.0,-99.9,29.95,SW,233,11.0,15.0,-999,-99.99,,,-99.99,,2013-08-10 01:53:00,
2013-08-09 19:11:00,62.0,-99.9,29.95,SW,236,12.0,18.0,-999,-99.99,,,-99.99,,2013-08-10 02:11:00,
2013-08-09 19:21:00,62.0,-99.9,29.95,SW,236,12.0,18.0,-999,-99.99,,,-99.99,,2013-08-10 02:21:00,
2013-08-09 19:42:00,62.0,-99.9,29.96,WSW,241,11.0,16.0,-999,-99.99,,,-99.99,,2013-08-10 02:42:00,
2013-08-09 19:52:00,62.0,-99.9,29.96,WSW,241,11.0,16.0,-999,-99.99,,,-99.99,,2013-08-10 02:52:00,
2013-08-09 20:11:00,62.0,-99.9,29.97,WSW,244,10.0,14.0,-999,-99.99,,,-99.99,,2013-08-10 03:11:00,
2013-08-09 20:22:00,62.0,-99.9,29.97,WSW,244,10.0,14.0,-999,-99.99,,,-99.99,,2013-08-10 03:22:00,
2013-08-09 20:42:00,61.0,-99.9,29.97,WSW,248,13.0,16.0,-999,-99.99,,,-99.99,,2013-08-10 03:42:00,
2013-08-09 20:52:00,61.0,-99.9,29.97,WSW,248,13.0,16.0,-999,-99.99,,,-99.99,,2013-08-10 03:52:00,
2013-08-09 21:02:00,60.0,-99.9,29.97,WSW,242,10.0,14.0,-999,-99.99,,,-99.99,,2013-08-10 04:02:00,
2013-08-09 21:12:00,60.0,-99.9,29.97,WSW,242,10.0,14.0,-999,-99.99,,,-99.99,,2013-08-10 04:12:00,
2013-08-09 21:22:00,60.0,-99.9,29.97,WSW,242,10.0,14.0,-999,-99.99,,,-99.99,,2013-08-10 04:22:00,
2013-08-09 21:32:00,60.0,-99.9,29.98,SW,235,9.0,13.0,-999,-99.99,,,-99.99,,2013-08-10 04:32:00,
2013-08-09 21:43:00,60.0,-99.9,29.99,SW,229,9.0,11.0,-999,-99.99,,,-99.99,,2013-08-10 04:43:00,
2013-08-09 21:53:00,60.0,-99.9,29.99,SW,229,9.0,11.0,-999,-99.99,,,-99.99,,2013-08-10 04:53:00,
2013-08-09 22:02:00,60.0,-99.9,29.99,SW,232,8.0,11.0,-999,-99.99,,,-99.99,,2013-08-10 05:02:00,
2013-08-09 22:22:00,60.0,-99.9,29.99,WSW,238,8.0,11.0,-999,-99.99,,,-99.99,,2013-08-10 05:22:00,
2013-08-09 22:32:00,60.0,-99.9,30.00,WSW,237,8.0,10.0,-999,-99.99,,,-99.99,,2013-08-10 05:32:00,
2013-08-09 22:43:00,60.0,-99.9,30.00,WSW,237,8.0,10.0,-999,-99.99,,,-99.99,,2013-08-10 05:43:00,
2013-08-09 23:11:00,60.0,-99.9,30.00,SW,223,7.0,9.0,-999,-99.99,,,-99.99,,2013-08-10 06:11:00,
2013-08-09 23:22:00,60.0,-99.9,30.00,SW,223,7.0,9.0,-999,-99.99,,,-99.99,,2013-08-10 06:22:00,
2013-08-09 23:32:00,59.0,-99.9,30.01,SW,228,7.0,10.0,-999,-99.99,,,-99.99,,2013-08-10 06:32:00,
2013-08-09 23:44:00,59.0,-99.9,30.01,SW,228,7.0,10.0,-999,-99.99,,,-99.99,,2013-08-10 06:44:00,